Middlebury State AP, Middlebu, VT

6:42 AM EST on November 14, 2019 (GMT -0500)
Middlebury State AP, Middlebu

Weather History for K6B0 - August, 2019

Change the Weather History Date:

Wednesday, August 28, 2019

  Actual Average (WUND) Record (WUND)
Temperature  
Mean Temperature 70 °F -  
Max Temperature 79 °F - - (-1)
Min Temperature 62 °F - - (-1)
Cooling Degree Days 6    
Growing Degree Days 20 (Base 50)    
Moisture  
Dew Point 61 °F    
Average Humidity 77    
Maximum Humidity 98    
Minimum Humidity 61    
Precipitation  
Precipitation 0.18 in - - ()
Sea Level Pressure  
Sea Level Pressure 29.88 in    
Wind  
Wind Speed 5 mph ()    
Max Wind Speed 16 mph    
Max Gust Speed 18 mph    
Visibility 9.5 miles    
Events Rain    
Averages and records for this station are not official NWS values.
T = Trace of Precipitation, MM = Missing Value Source: Averaged Metar Reports

Daily Weather History Graph

Daily Weather History Graph

Search for Another Location

Airport or City:

Astronomy

Aug. 28, 2019 Rise Set
Actual Time 6:10 AM EDT 7:35 PM EDT
Civil Twilight 5:40 AM EDT 8:05 PM EDT
Nautical Twilight 5:04 AM EDT 8:41 PM EDT
Astronomical Twilight 4:25 AM EDT 9:20 PM EDT
Moon 3:33 AM EDT (8/28) 6:50 PM EDT (8/28)
Length of Visible Light 14h 24m
Length of Day
13h 24m
Waning Crescent, 5% of the Moon is Illuminated
Aug 28
Waning Crescent
Aug 30
New
Sep 5
First Quarter
Sep 14
Full
Sep 21
Last Quarter

Hourly Weather History & Observations

Time (EDT) Temp. Dew Point Humidity Pressure Visibility Wind Dir Wind Speed Gust Speed Precip Events Conditions
12:15 AM 67.8 °F 54.5 °F 62% 29.97 in 10.0 mi South 6.9 mph - N/A   Overcast
12:19 AM 67.5 °F 54.9 °F 64% 29.97 in 10.0 mi SSE 8.1 mph - N/A   Overcast
12:37 AM 67.8 °F 54.7 °F 63% 29.97 in 10.0 mi South 6.9 mph - N/A   Overcast
12:55 AM 68.0 °F 54.7 °F 62% 29.97 in 10.0 mi South 6.9 mph - N/A   Overcast
1:15 AM 67.5 °F 54.7 °F 64% 29.96 in 10.0 mi South 6.9 mph - N/A   Overcast
1:35 AM 67.5 °F 55.0 °F 64% 29.96 in 10.0 mi South 8.1 mph - N/A   Overcast
1:36 AM 67.5 °F 55.0 °F 64% 29.96 in 10.0 mi South 8.1 mph - N/A   Overcast
1:58 AM 67.6 °F 55.0 °F 64% 29.95 in 10.0 mi South 6.9 mph - N/A   Overcast
2:16 AM 67.5 °F 55.4 °F 65% 29.95 in 10.0 mi South 4.6 mph - N/A   Overcast
2:36 AM 67.5 °F 55.4 °F 65% 29.94 in 10.0 mi South 10.4 mph - N/A   Overcast
2:55 AM 67.5 °F 55.6 °F 66% 29.94 in 10.0 mi South 8.1 mph - N/A   Overcast
2:56 AM 67.5 °F 55.6 °F 66% 29.94 in 10.0 mi South 6.9 mph - N/A   Overcast
3:15 AM 67.3 °F 55.9 °F 67% 29.94 in 10.0 mi South 8.1 mph - N/A   Overcast
3:19 AM 67.1 °F 55.9 °F 67% 29.94 in 10.0 mi South 9.2 mph - N/A   Overcast
3:38 AM 67.1 °F 55.9 °F 67% 29.94 in 10.0 mi South 6.9 mph - N/A   Overcast
3:55 AM 67.1 °F 56.3 °F 68% 29.94 in 10.0 mi South 9.2 mph - N/A   Overcast
4:15 AM 67.1 °F 56.3 °F 68% 29.94 in 10.0 mi South 9.2 mph - N/A   Overcast
4:16 AM 66.9 °F 56.3 °F 69% 29.93 in 10.0 mi South 8.1 mph - N/A   Overcast
4:35 AM 66.7 °F 56.5 °F 70% 29.93 in 10.0 mi South 8.1 mph - N/A   Overcast
4:59 AM 66.6 °F 56.5 °F 70% 29.92 in 10.0 mi South 10.4 mph - N/A   Overcast
5:17 AM 66.4 °F 56.7 °F 71% 29.92 in 10.0 mi South 9.2 mph - N/A   Overcast
5:36 AM 66.2 °F 56.7 °F 71% 29.92 in 10.0 mi South 6.9 mph - N/A   Overcast
5:55 AM 66.2 °F 56.7 °F 71% 29.92 in 10.0 mi South 5.8 mph - N/A   Overcast
5:56 AM 66.2 °F 56.7 °F 71% 29.92 in 10.0 mi South 6.9 mph - N/A   Overcast
6:15 AM 66.4 °F 56.7 °F 71% 29.92 in 10.0 mi South 6.9 mph - N/A   Overcast
6:19 AM 66.4 °F 57.0 °F 72% 29.92 in 10.0 mi South 4.6 mph - N/A   Overcast
6:37 AM 66.2 °F 57.2 °F 73% 29.92 in 10.0 mi South 5.8 mph - N/A   Overcast
6:55 AM 66.2 °F 57.4 °F 73% 29.92 in 10.0 mi South 4.6 mph - N/A   Overcast
7:15 AM 65.8 °F 57.7 °F 75% 29.92 in 10.0 mi SSE 4.6 mph - N/A   Overcast
7:16 AM 65.8 °F 57.9 °F 76% 29.92 in 10.0 mi SSE 4.6 mph - N/A   Overcast
7:35 AM 66.6 °F 58.5 °F 75% 29.92 in 10.0 mi South 3.5 mph - N/A   Overcast
7:36 AM 66.6 °F 58.5 °F 75% 29.92 in 10.0 mi South 3.5 mph - N/A   Overcast
7:59 AM 66.4 °F 59.2 °F 78% 29.91 in 10.0 mi Calm Calm - N/A   Overcast
8:17 AM 68.5 °F 59.4 °F 72% 29.91 in 10.0 mi South 4.6 mph - N/A   Overcast
8:35 AM 67.6 °F 59.7 °F 76% 29.90 in 10.0 mi South 3.5 mph - N/A   Overcast
8:55 AM 68.5 °F 60.1 °F 74% 29.91 in 10.0 mi SSE 4.6 mph - N/A   Overcast
8:56 AM 68.5 °F 59.9 °F 74% 29.91 in 10.0 mi SSE 3.5 mph - N/A   Overcast
9:15 AM 69.4 °F 60.8 °F 74% 29.91 in 10.0 mi SSW 3.5 mph - N/A   Overcast
9:19 AM 69.8 °F 60.1 °F 71% 29.91 in 10.0 mi Calm Calm - N/A   Overcast
9:37 AM 70.5 °F 60.3 °F 70% 29.90 in 10.0 mi South 6.9 mph - N/A   Overcast
9:55 AM 71.8 °F 61.0 °F 69% 29.90 in 10.0 mi South 8.1 mph - N/A   Overcast
10:15 AM 72.9 °F 60.6 °F 65% 29.90 in 10.0 mi South 9.2 mph - N/A   Scattered Clouds
10:16 AM 72.7 °F 60.3 °F 65% 29.90 in 10.0 mi South 8.1 mph - N/A   Scattered Clouds
10:35 AM 73.6 °F 61.5 °F 66% 29.90 in 10.0 mi South 8.1 mph - N/A   Scattered Clouds
10:36 AM 73.6 °F 61.9 °F 67% 29.90 in 10.0 mi SSW 8.1 mph - N/A   Scattered Clouds
10:58 AM 74.5 °F 62.2 °F 66% 29.89 in 10.0 mi South 5.8 mph - N/A   Mostly Cloudy
11:16 AM 74.5 °F 62.1 °F 65% 29.89 in 10.0 mi South 5.8 mph - N/A   Scattered Clouds
11:35 AM 75.2 °F 62.4 °F 64% 29.88 in 10.0 mi SE 4.6 mph - N/A   Scattered Clouds
11:55 AM 76.5 °F 63.0 °F 63% 29.88 in 10.0 mi Calm Calm - N/A   Scattered Clouds
11:56 AM 76.5 °F 63.1 °F 63% 29.88 in 10.0 mi Calm Calm - N/A   Scattered Clouds
12:15 PM 77.4 °F 64.2 °F 64% 29.87 in 10.0 mi South 9.2 mph - N/A   Mostly Cloudy
12:19 PM 77.0 °F 63.3 °F 63% 29.87 in 10.0 mi South 5.8 mph - N/A   Mostly Cloudy
12:37 PM 76.5 °F 63.7 °F 64% 29.87 in 10.0 mi South 5.8 mph - N/A   Overcast
12:55 PM 77.2 °F 64.0 °F 64% 29.86 in 10.0 mi SSW 6.9 mph - N/A   Overcast
1:15 PM 76.8 °F 63.9 °F 64% 29.85 in 10.0 mi SSE 6.9 mph - N/A   Overcast
1:16 PM 77.0 °F 64.0 °F 64% 29.85 in 10.0 mi South 5.8 mph - N/A   Overcast
1:35 PM 77.9 °F 63.9 °F 62% 29.85 in 10.0 mi South 9.2 mph - N/A   Overcast
1:36 PM 77.9 °F 63.9 °F 62% 29.84 in 10.0 mi South 9.2 mph - N/A   Overcast
1:59 PM 79.0 °F 64.4 °F 61% 29.84 in 10.0 mi SSW 4.6 mph - N/A   Overcast
2:17 PM 77.9 °F 63.9 °F 62% 29.83 in 10.0 mi South 9.2 mph - N/A   Overcast
2:36 PM 77.0 °F 64.0 °F 64% 29.82 in 10.0 mi SSE 3.5 mph - N/A   Overcast
2:55 PM 77.0 °F 65.8 °F 68% 29.82 in 10.0 mi Calm Calm - N/A   Overcast
2:56 PM 77.2 °F 66.2 °F 69% 29.82 in 10.0 mi Calm Calm - N/A   Overcast
3:18 PM 77.5 °F 64.4 °F 64% 29.82 in 10.0 mi Calm Calm - N/A   Overcast
3:36 PM 75.2 °F 68.9 °F 81% 29.82 in 10.0 mi Calm Calm - N/A   Overcast
3:55 PM 73.9 °F 68.4 °F 83% 29.82 in 10.0 mi Calm Calm - N/A   Overcast
3:56 PM 73.9 °F 68.5 °F 83% 29.82 in 10.0 mi Calm Calm - N/A   Overcast
4:15 PM 72.1 °F 67.6 °F 86% 29.82 in 10.0 mi Calm Calm - N/A   Overcast
4:16 PM 72.3 °F 67.8 °F 86% 29.82 in 10.0 mi Calm Calm - N/A   Overcast
4:38 PM 71.8 °F 67.6 °F 87% 29.81 in 10.0 mi Calm Calm - N/A   Overcast
4:56 PM 71.8 °F 67.3 °F 86% 29.81 in 10.0 mi Calm Calm - N/A   Overcast
5:16 PM 71.6 °F 67.5 °F 87% 29.80 in 10.0 mi Calm Calm - N/A   Overcast
5:35 PM 71.4 °F 66.9 °F 86% 29.80 in 10.0 mi Calm Calm - N/A   Overcast
5:55 PM 70.9 °F 67.3 °F 88% 29.80 in 10.0 mi Calm Calm - N/A   Drizzle
5:56 PM 70.9 °F 67.3 °F 88% 29.80 in 10.0 mi Calm Calm - N/A   Drizzle
6:15 PM 70.2 °F 67.3 °F 91% 29.81 in 10.0 mi Calm Calm - N/A Rain Rain
6:16 PM 70.2 °F 67.5 °F 91% 29.81 in 10.0 mi Calm Calm - N/A Rain Rain
6:39 PM 69.1 °F 66.6 °F 92% 29.82 in 10.0 mi Calm Calm - N/A   Overcast
6:57 PM 69.6 °F 66.9 °F 91% 29.84 in 5.0 mi NNW 10.4 mph - 0.02 in Rain Rain
7:15 PM 66.4 °F 64.2 °F 93% 29.85 in 7.0 mi North 16.1 mph - 0.01 in Rain Light Rain
7:16 PM 66.4 °F 64.0 °F 92% 29.85 in 7.0 mi North 15.0 mph 18.4 mph 0.02 in Rain Light Rain
7:35 PM 65.1 °F 63.3 °F 94% 29.86 in 7.0 mi North 11.5 mph 17.3 mph 0.03 in   Heavy Drizzle
7:36 PM 64.9 °F 63.1 °F 94% 29.86 in 7.0 mi North 11.5 mph 17.3 mph 0.03 in   Heavy Drizzle
7:55 PM 64.2 °F 62.8 °F 95% 29.86 in 5.0 mi North 5.8 mph - 0.05 in   Heavy Drizzle
7:59 PM 64.4 °F 63.0 °F 95% 29.86 in 7.0 mi NNW 5.8 mph - 0.05 in   Heavy Drizzle
8:16 PM 64.0 °F 62.6 °F 95% 29.86 in 10.0 mi NNE 6.9 mph - N/A   Drizzle
8:36 PM 64.2 °F 62.6 °F 94% 29.86 in 7.0 mi NNW 4.6 mph - 0.01 in Rain Rain
8:55 PM 63.5 °F 62.2 °F 96% 29.85 in 5.0 mi NNE 3.5 mph - 0.04 in Rain Heavy Rain
8:56 PM 63.5 °F 62.2 °F 96% 29.85 in 5.0 mi NNE 3.5 mph - 0.04 in Rain Heavy Rain
9:15 PM 63.5 °F 62.2 °F 96% 29.85 in 10.0 mi Calm Calm - N/A   Drizzle
9:19 PM 63.5 °F 62.2 °F 96% 29.85 in 10.0 mi Calm Calm - N/A   Light Drizzle
9:37 PM 63.3 °F 62.2 °F 96% 29.85 in 10.0 mi Calm Calm - N/A   Overcast
9:56 PM 63.5 °F 62.6 °F 97% 29.85 in 10.0 mi Calm Calm - N/A   Overcast
10:15 PM 63.5 °F 62.8 °F 97% 29.83 in 10.0 mi Calm Calm - N/A   Light Drizzle
10:35 PM 63.7 °F 62.8 °F 97% 29.84 in 10.0 mi NW 3.5 mph - 0.01 in Rain Light Rain
10:39 PM 63.7 °F 62.8 °F 97% 29.84 in 10.0 mi NNW 3.5 mph - 0.01 in Rain Light Rain
10:58 PM 63.5 °F 62.6 °F 97% 29.86 in 5.0 mi Calm Calm - 0.04 in Rain Heavy Rain
11:16 PM 63.5 °F 62.6 °F 97% 29.86 in 7.0 mi Calm Calm - 0.01 in   Drizzle
11:35 PM 63.1 °F 62.6 °F 98% 29.85 in 10.0 mi Calm Calm - 0.02 in   Drizzle
11:36 PM 63.1 °F 62.4 °F 97% 29.85 in 10.0 mi Calm Calm - 0.02 in   Drizzle
11:55 PM 62.8 °F 61.9 °F 97% 29.86 in 10.0 mi Calm Calm - 0.03 in Rain Light Rain
11:56 PM 62.8 °F 61.9 °F 97% 29.86 in 10.0 mi Calm Calm - 0.03 in Rain Light Rain